Home   Weather   Seevetal   Past weeks

Flag for Germany Past Weather in Seevetal, Lower Saxony, Germany — Yesterday and Last 2 Weeks

Now
45 °F

Passing clouds.


Feels Like: 39 °F
Forecast: 32 / 49 °F
Wind: 12 mph from West

Location: Hamburg-Finkenwerder

Current Time: Apr 25, 2017 at 10:52:55 pm

Latest Report: Apr 25, 2017 at 7:50 pm


Visibility: N/A

Pressure: 29.74 "Hg

Humidity: 61%

Dew Point: 32 °F

Location of SeevetalLocation

Past Weather in Seevetal — Graph

°F

Seevetal Temperature Yesterday

Maximum temperature yesterday: 52 °F (at 11:50 am)
Minimum temperature yesterday: 39 °F (at 5:50 am)
Average temperature yesterday: 47 °F

High & Low Weather Summary for the Past Weeks

 TemperatureHumidityPressure
High57 °F (Apr 21, 12:50 pm)100% (Apr 25, 7:41 am)30.60 "Hg (Apr 25, 7:41 am)
Low30 °F (Apr 19, 5:50 am)40% (Apr 19, 5:20 pm)29.56 "Hg (Apr 25, 8:20 am)
Average46 °F73%30.08 "Hg
* Reported Apr 10 7:20 pm — Apr 25 7:50 pm, Seevetal, Weather by CustomWeather, © 2017

Note: Actual official high and low records may vary slightly from our data, if they occured in-between our weather recording intervals... More about our weather records

Advertising

Seevetal Weather History for the Previous 24 Hours

Scroll right to see more
 ConditionsComfort  
Time TempWeatherWind HumidityBarometerVisibility
7:50 pm
Tue, Apr 25
45 °FPassing clouds.12 mph61%29.74 "HgN/A
7:20 pm45 °FSunny.15 mph57%29.74 "Hg10 mi
6:50 pm46 °FPassing clouds.14 mph53%29.74 "HgN/A
6:20 pm46 °FPassing clouds.16 mph53%29.71 "HgN/A
5:50 pm46 °FPassing clouds.14 mph57%29.71 "HgN/A
5:20 pm45 °FScattered clouds.15 mph66%29.71 "HgN/A
4:50 pm46 °FPassing clouds.16 mph57%29.71 "HgN/A
4:20 pm46 °FScattered clouds.15 mph57%29.71 "HgN/A
3:50 pm46 °FScattered clouds.16 mph62%29.68 "HgN/A
3:20 pm46 °FScattered clouds.15 mph62%29.68 "HgN/A
2:50 pm45 °FScattered clouds.17 mph71%29.65 "HgN/A
2:20 pm43 °FScattered clouds.21 mph81%29.65 "HgN/A
1:50 pm46 °FScattered clouds.23 mph76%29.62 "HgN/A
1:20 pm45 °FBroken clouds.23 mph71%29.59 "HgN/A
12:50 pm45 °FScattered showers. Scattered clouds.23 mph76%29.59 "HgN/A
12:20 pm43 °FScattered showers. Scattered clouds.17 mph81%29.59 "HgN/A
11:50 am46 °FSprinkles. Scattered clouds.20 mph71%29.59 "HgN/A
11:23 am43 °FSprinkles. Scattered clouds.17 mph76%29.59 "HgN/A
10:50 am45 °FScattered clouds.18 mph71%29.59 "HgN/A
10:20 am43 °FScattered clouds.16 mph76%29.56 "HgN/A
9:50 am43 °FScattered clouds.15 mph81%29.56 "HgN/A
9:20 am41 °FScattered clouds.10 mph93%29.56 "HgN/A
8:50 am39 °FScattered clouds.5 mph93%29.56 "Hg6 mi
8:20 am37 °FLight rain. Scattered clouds.3 mph100%29.56 "Hg5 mi
7:41 am37 °FLight rain. Broken clouds.6 mph100%29.59 "HgN/A
7:20 am37 °FBroken clouds.6 mph93%29.59 "HgN/A
6:50 am37 °FPartly sunny.5 mph93%29.59 "HgN/A
6:20 am37 °FLight rain. Partly sunny.3 mph93%29.59 "Hg6 mi
Weather by CustomWeather, © 2017

See weather overviewHow to use our weather pages